Theta_e
307 300 297 300 302 302 300 298 297 299 303 299 297 297 299 303 304 304 305 305 304 307 312 316 318 318 318 317 316 317 317 319 319 327 328 329 330 330 330 334 336 335 335 334
302 298 303 305 304 302 300 297 296 300 303 298 297 296 300 301 302 303 304 305 306 309 311 313 316 317 319 321 318 316 317 319 320 328 328 330 330 331 330 331 332 333 333 333
298 301 306 304 301 299 299 296 295 296 300 299 296 294 297 301 303 307 306 307 309 310 309 313 315 317 319 320 322 321 319 320 322 327 330 329 329 327 328 328 329 329 331 330
301 304 303 301 299 300 295 301 300 298 294 287 297 286 294 299 301 304 304 305 309 309 312 314 316 317 319 320 325 327 326 324 327 327 327 324 325 320 324 323 326 324 325 326
299 301 300 299 300 301 297 302 299 298 293 291 292 288 292 299 298 300 302 306 309 309 312 312 316 318 320 322 324 326 327 329 327 327 328 327 322 320 321 322 323 321 320 323
301 306 304 302 304 303 303 299 298 297 293 285 291 290 291 296 299 301 303 307 309 309 312 314 317 319 319 321 322 323 323 325 326 326 327 322 318 318 318 318 319 319 317 315
299 300 302 304 298 301 300 294 287 285 285 284 296 291 292 298 302 303 303 307 309 309 311 313 316 317 317 318 319 321 320 319 321 325 326 322 320 317 317 316 317 317 314 313
292 290 299 301 298 295 295 294 289 281 283 287 295 285 292 302 304 305 308 309 310 308 311 312 315 315 315 316 317 318 318 317 318 318 319 321 321 319 318 317 317 316 315 313
293 293 302 302 301 299 295 291 297 290 290 285 290 294 298 302 302 304 306 308 307 308 310 311 314 314 315 315 316 316 316 316 317 316 316 317 317 317 316 316 315 314 315 315
297 291 299 299 301 300 297 299 289 289 281 281 288 288 290 296 299 302 304 306 308 310 310 311 313 313 314 315 316 316 315 315 316 317 316 315 315 314 314 314 313 312 312 313
299 295 294 296 294 293 294 293 294 293 290 283 283 287 295 298 301 301 303 307 308 308 309 310 312 313 313 313 314 314 314 314 314 315 314 313 312 312 312 311 311 311 311 310
300 295 290 291 298 299 297 294 295 288 287 289 287 286 296 301 301 303 303 307 309 310 308 309 310 311 311 312 312 313 312 312 313 313 312 311 312 312 311 310 310 310 310 310
299 293 287 289 292 295 293 296 296 295 293 288 285 287 298 299 299 302 304 307 309 309 308 308 308 308 309 311 311 311 311 311 313 311 311 311 311 311 310 310 311 311 310 309
301 294 291 286 290 293 290 293 295 294 289 288 289 290 294 296 297 301 305 307 308 308 307 307 308 308 309 310 310 310 310 310 311 310 308 307 309 309 310 310 310 309 309 307
296 291 293 294 295 296 294 293 293 292 293 289 292 293 295 297 297 301 306 307 307 308 308 307 307 307 308 308 309 309 309 309 308 308 307 305 307 305 305 304 304 305 302 302
296 290 293 291 295 295 293 295 294 294 295 294 294 293 298 300 300 301 306 307 307 307 308 308 308 307 307 307 307 308 308 308 309 306 305 305 304 303 301 301 301 301 301 301
291 290 290 286 293 293 289 293 294 295 296 296 292 296 298 298 301 301 304 307 307 308 308 308 308 308 307 306 308 307 308 308 306 305 306 305 305 304 303 302 302 301 300 298
288 288 289 287 289 282 293 298 298 296 298 298 298 299 300 300 302 303 306 307 308 309 309 310 309 309 307 308 309 309 309 306 306 306 306 307 305 302 302 300 298 297 296 295
293 288 285 284 285 289 293 296 296 294 294 300 298 300 300 301 299 300 307 309 309 310 311 311 311 311 310 309 309 309 310 307 307 305 303 303 302 301 300 298 297 296 295 294
293 291 287 286 283 281 292 298 300 300 290 300 301 300 300 299 292 295 306 309 310 312 313 313 313 311 310 310 311 309 305 306 304 302 302 302 301 300 298 296 295 294 293 293
286 286 282 284 284 289 297 300 301 289 291 301 302 302 301 297 299 301 307 308 311 312 313 314 312 309 308 310 308 304 303 302 302 303 301 299 298 297 296 294 293 292 292 292
285 283 283 285 283 282 299 298 294 297 301 301 301 303 302 302 302 303 306 308 310 311 313 313 310 308 308 308 306 302 300 301 301 299 298 296 296 298 296 293 292 292 291 290
282 289 286 288 287 297 300 298 301 299 299 300 301 303 304 302 302 303 305 308 310 312 313 313 310 307 308 308 306 302 301 300 298 296 294 294 294 294 294 292 291 290 290 289
290 294 290 291 294 296 299 301 298 300 300 302 302 304 304 302 303 303 306 307 310 312 312 313 311 308 307 308 307 304 302 300 298 295 293 293 292 292 292 293 292 291 290 289
290 294 291 292 296 298 300 301 302 300 300 301 302 303 303 303 303 304 306 308 310 312 313 313 311 309 308 308 307 304 302 299 297 295 294 293 293 291 290 291 291 292 291 291
291 291 291 289 297 297 298 302 301 300 300 301 301 301 303 304 304 305 306 308 310 311 312 312 312 310 308 307 307 304 302 300 297 296 294 294 293 291 291 290 289 299 299 300
Wind_Speed
11 8 12 13 14 15 14 13 9 10 10 5 6 11 14 12 7 7 8 6 2 8 9 12 10 9 10 10 5 4 3 7 3 3 4 4 5 3 3 3 7 9 8 11
14 16 14 14 15 10 8 11 11 11 12 1 7 14 14 12 6 5 4 6 7 8 9 7 8 10 9 12 6 7 6 7 5 4 3 2 4 3 4 0 3 6 10 11
16 13 15 13 13 9 11 13 12 13 10 6 11 18 15 9 6 9 5 7 8 8 5 6 8 7 9 10 11 4 8 7 6 6 5 4 5 4 2 1 2 1 8 12
15 17 19 10 11 11 13 10 9 12 4 5 4 7 11 4 7 8 8 7 10 8 3 3 5 7 7 7 9 3 5 5 6 7 6 5 4 3 2 2 3 3 5 7
9 7 7 15 15 11 11 3 5 5 7 9 10 6 6 10 9 10 9 9 10 8 3 3 4 5 7 8 8 8 4 6 7 7 6 4 6 3 2 3 7 8 4 3
18 8 5 11 9 8 4 5 6 6 4 6 15 11 6 8 10 12 10 10 10 7 5 4 4 5 6 8 7 7 8 8 2 5 7 8 8 6 5 3 6 6 8 2
16 20 6 5 4 3 6 5 2 3 3 6 6 2 6 5 6 11 12 12 9 8 6 4 5 7 7 8 9 8 8 10 10 8 8 6 5 5 7 6 5 8 7 6
16 13 20 14 17 7 12 8 6 6 2 4 2 6 4 10 9 9 10 13 10 8 6 5 5 7 7 8 8 8 8 8 8 8 8 6 6 2 4 5 6 4 7 7
9 15 7 14 13 16 10 10 9 4 5 3 6 7 1 10 9 8 8 12 11 8 8 6 6 6 5 6 8 8 8 8 8 7 6 6 6 5 6 6 9 5 7 7
9 9 2 6 8 13 15 6 3 4 4 5 8 9 6 12 14 13 11 11 10 11 10 7 6 7 5 4 7 8 7 7 7 7 7 6 7 8 9 8 9 8 7 8
24 14 1 7 9 12 8 6 7 6 6 3 4 0 6 12 16 16 12 11 14 11 11 8 8 6 4 5 5 7 7 7 8 8 8 9 9 10 10 9 9 9 9 9
19 12 14 10 7 15 15 11 15 4 7 6 2 7 3 10 9 14 12 12 13 13 10 10 8 5 5 5 5 7 7 7 8 8 9 9 10 10 10 10 10 10 10 10
5 11 9 9 7 3 8 15 16 15 8 7 6 3 3 9 8 10 12 12 12 15 12 10 8 6 6 6 6 6 7 7 8 8 9 8 8 9 9 9 9 10 10 10
10 8 17 18 14 8 9 16 20 18 13 11 11 3 6 8 9 8 12 11 12 14 13 12 8 8 7 7 6 8 7 7 7 9 8 8 8 9 9 10 11 10 10 11
8 10 20 22 23 15 12 16 22 24 22 15 13 14 11 15 14 12 11 12 13 15 14 13 11 10 9 9 8 8 7 8 7 10 9 8 8 9 9 10 10 10 9 9
8 11 15 17 19 23 20 16 21 23 24 22 8 8 5 12 9 11 14 15 15 16 16 15 12 11 11 10 10 8 9 8 9 9 10 9 9 9 8 9 10 9 9 10
6 8 12 19 18 16 19 21 15 13 21 18 18 16 6 11 15 15 15 16 16 16 17 16 14 13 11 11 11 10 10 10 9 9 9 9 10 10 10 10 9 8 8 8
3 4 8 15 12 21 12 7 13 16 13 22 23 6 10 9 16 14 14 16 14 16 18 16 13 12 12 11 11 11 11 11 11 11 11 10 9 8 8 7 7 7 7 7
13 3 4 6 13 10 8 16 11 19 20 15 18 18 8 7 8 9 16 16 16 15 18 16 14 12 15 15 12 12 12 11 9 7 8 7 8 8 8 8 8 7 7 7
18 12 3 4 8 13 15 18 9 13 17 15 20 15 14 9 8 7 18 18 16 15 17 18 17 12 14 14 15 12 9 11 9 9 8 8 8 8 8 7 7 5 6 6
17 12 17 10 6 9 14 11 5 16 6 13 17 20 16 16 12 10 16 17 17 16 19 19 17 15 14 12 13 10 9 8 8 9 8 8 8 8 8 7 6 6 7 7
12 11 9 10 6 12 11 4 17 7 8 2 4 16 17 14 8 9 18 19 20 19 20 19 16 15 14 14 14 12 9 8 9 9 9 8 8 7 7 8 5 7 7 7
18 9 8 14 18 6 16 9 7 2 1 4 6 4 15 11 14 10 17 20 20 21 18 17 17 17 14 15 14 14 10 12 11 10 9 8 8 7 7 7 7 6 6 5
20 16 16 14 17 11 22 17 3 6 0 5 5 7 10 14 12 13 17 18 18 19 18 17 18 18 17 14 13 12 12 14 13 10 9 8 9 7 7 5 5 5 5 5
10 11 24 22 16 12 20 19 15 6 3 5 5 5 7 13 11 13 16 18 18 19 18 18 18 17 17 16 14 14 14 15 13 11 9 8 7 7 6 5 5 5 5 6
8 10 5 16 16 16 18 16 7 9 7 7 4 4 3 8 11 11 15 16 18 18 17 17 16 16 16 16 14 14 15 16 14 12 9 8 8 6 5 6 5 10 9 13
Wind_Direction
199 211 224 234 231 235 275 292 295 298 292 217 250 267 268 256 251 188 199 227 338 29 41 26 350 321 315 294 268 178 227 280 249 173 149 140 163 162 180 145 176 188 195 187
241 227 241 257 268 275 290 280 271 275 274 350 285 273 266 260 230 201 141 87 47 49 38 1 347 345 340 330 321 164 210 236 234 141 137 169 154 77 99 108 176 192 200 187
226 238 204 227 249 252 259 259 272 282 308 299 290 272 268 221 185 89 91 108 89 72 30 357 355 356 348 347 326 302 206 207 210 149 110 85 93 78 96 138 149 135 160 175
243 241 253 242 251 249 248 255 288 261 305 260 1 287 305 142 149 142 185 156 104 99 48 8 12 6 352 336 336 306 352 179 136 164 121 144 115 140 128 120 84 75 109 158
227 232 244 240 237 237 256 13 296 298 275 292 264 267 276 154 173 167 194 121 111 108 94 50 33 23 9 2 6 3 67 81 133 127 143 127 101 153 151 142 143 133 55 160
241 269 244 240 249 229 288 154 244 260 259 258 249 216 258 186 182 173 131 135 123 141 120 84 83 76 36 25 19 27 22 24 122 154 147 130 148 157 156 137 140 144 124 326
240 235 204 243 191 220 177 161 280 247 196 236 12 290 216 102 95 137 142 134 136 123 142 95 32 83 56 47 47 48 41 33 32 59 98 130 153 157 154 138 154 138 128 118
219 234 220 186 204 171 197 200 170 204 250 309 116 245 253 105 95 96 128 129 126 132 147 129 84 71 61 57 56 55 58 62 54 51 51 63 76 72 95 113 104 120 127 126
225 228 259 190 188 219 178 220 233 295 304 316 232 239 160 132 133 133 143 132 147 150 148 143 117 95 79 77 72 64 57 60 72 77 77 66 85 96 78 86 79 72 98 119
265 281 186 118 156 220 239 156 138 241 203 230 243 211 205 178 172 166 173 166 153 148 151 138 116 107 104 83 89 85 73 65 71 80 78 78 71 74 77 71 83 81 80 100
221 245 27 104 208 187 200 212 232 168 208 222 311 228 336 185 177 171 175 176 154 154 161 146 113 112 109 103 96 97 87 82 68 71 82 82 85 79 82 84 84 87 86 90
210 216 240 205 212 219 203 208 210 173 213 212 306 283 326 144 170 160 170 169 153 153 148 154 126 123 117 116 97 108 98 86 94 87 88 86 87 91 92 92 95 93 92 92
208 201 230 274 194 246 220 214 226 238 283 224 182 251 73 119 139 152 153 157 153 134 141 149 134 144 136 132 117 101 101 100 100 89 86 86 92 98 98 105 106 105 102 95
323 197 211 221 214 161 201 218 220 220 231 239 229 173 186 150 152 160 150 156 156 143 154 162 149 152 140 127 125 111 107 103 104 104 98 89 93 95 100 101 100 97 97 98
292 230 221 241 265 238 214 217 217 221 224 221 231 227 210 183 176 169 156 163 161 154 157 169 158 152 147 139 125 120 120 114 105 109 112 104 104 98 96 87 90 95 94 100
261 253 252 243 243 258 261 244 212 219 227 233 243 237 131 166 151 159 165 172 173 167 160 173 160 156 155 145 139 138 127 128 122 111 112 114 110 106 103 99 97 99 103 105
304 315 241 250 240 251 264 232 234 211 225 222 227 225 141 161 173 180 174 179 178 169 162 166 169 162 156 153 146 144 133 124 119 123 125 125 127 126 120 117 115 114 104 95
286 299 291 250 231 235 265 212 222 229 231 219 231 199 217 177 182 175 173 175 178 170 163 165 169 162 158 152 150 145 140 138 141 148 151 149 127 117 113 108 106 104 101 102
211 177 274 256 213 243 243 260 223 204 230 220 218 224 230 153 129 191 172 173 178 170 161 164 166 174 159 155 154 156 162 149 147 151 136 128 124 123 123 129 130 128 115 113
194 197 204 293 212 226 226 250 237 201 238 208 205 207 196 143 172 211 173 167 164 161 158 160 166 154 146 153 158 161 149 149 153 142 138 135 137 130 126 121 114 105 103 105
197 188 207 223 275 256 257 239 192 184 237 200 206 203 188 189 193 158 161 162 158 159 158 157 160 154 152 149 145 150 148 152 144 130 127 122 115 120 120 108 105 104 102 98
213 194 184 204 237 249 257 253 196 203 290 59 286 202 192 190 177 158 161 159 156 158 157 157 153 153 157 153 154 153 154 148 133 128 125 126 133 130 122 118 113 113 116 115
240 232 201 197 214 228 250 282 261 61 337 310 312 289 192 156 180 171 164 159 158 158 158 156 153 154 159 160 164 156 161 141 135 132 134 136 128 127 129 131 131 123 126 130
233 195 233 220 228 221 259 256 260 305 272 318 303 295 159 157 152 160 155 157 155 159 160 157 153 158 163 163 165 158 149 143 141 142 143 141 137 141 142 139 135 136 149 151
283 280 209 232 237 223 228 250 248 237 297 317 305 307 166 141 154 156 156 159 158 159 160 162 161 164 163 162 164 156 150 148 150 152 153 148 142 141 144 143 154 154 175 163
243 261 276 236 217 233 251 252 177 191 201 240 236 253 178 144 153 154 160 158 157 159 161 162 163 162 158 161 166 156 154 156 157 158 158 159 151 157 152 131 90 63 130 128